Content
SEND FEEDBACK

Daily
Averages
Monthly
Summary
France

LE HAVRE, FRANCE


Home > Europe > France
Elevation: 338 feet     Latitude: 49 31N     Longitude: 000 04E

WEATHER
 
SELECT A DAY
Number of Records: 183,450;   Date Range: 3/4/97 - 10/18/14
 
SHARE

PRINT THIS DATA

[ ← Previous Day ]
WEATHER ALMANAC - DECEMBER 31, 2012
[ Next Day → ]
[ °C ]   °F
Weather ElementAverageHighLow
Temperature49.5 °F51.8 °F (12:00 pm)46.4 °F (12:30 am)
Dewpoint45.1 °F46.4 °F (10:30 am)42.8 °F (12:30 am)
Humidity85.1 %93 % (9:00 pm)82 % (1:30 am)
Barometer29.82 in30.09 in (12:30 am)29.62 in (6:30 pm)
Wind Speed17.8 mph25.3 mph (6:00 pm)
Wind Gust36.8 mph (6:00 pm)
Weather ElementAverage
Wind DirectionSSW (194.3 °)

Weather ElementTotal
Precipitation---
Heating Degree Days15.9 (Base 65)
Averaged from 47 records on December 31, 2012
WEATHER CONDITIONS BREAKOUT
WIND DIRECTION BREAKOUT
WEATHER BY HOUR - DECEMBER 31, 2012
[ °C ]   °F
Local TimeTemperatureDewpointHumidityBarometerVisibilityWind DirectionWind SpeedGust SpeedPrecipitationEventsConditions
12:30 AM46.4 °F42.8 °F87 %30.09 inSSW (200°)13.8 mph
1:00 AM46.4 °F42.8 °F87 %30.06 inSouth (190°)12.7 mph
1:30 AM48.2 °F42.8 °F82 %30.06 inSSW (200°)16.1 mph
2:00 AM48.2 °F42.8 °F82 %30.06 inSouth (190°)15.0 mph
2:30 AM48.2 °F42.8 °F82 %30.04 inSSW (200°)17.3 mph
3:00 AM48.2 °F42.8 °F82 %30.04 inSouth (190°)16.1 mph
3:30 AM48.2 °F42.8 °F82 %30.04 inSouth (190°)17.3 mph
4:00 AM48.2 °F42.8 °F82 %30.01 inSouth (190°)16.1 mph
4:30 AM48.2 °F42.8 °F82 %30.01 inSouth (190°)16.1 mph27.6 mph
5:00 AM48.2 °F42.8 °F82 %29.98 inSouth (190°)17.3 mph
5:30 AM48.2 °F42.8 °F82 %29.98 inSouth (190°)16.1 mph
6:00 AM48.2 °F42.8 °F82 %29.98 inSouth (190°)17.3 mph
6:30 AM48.2 °F42.8 °F82 %29.95 inSouth (190°)15.0 mph
7:00 AM48.2 °F44.6 °F87 %29.95 inSouth (190°)17.3 mph
7:30 AM48.2 °F44.6 °F87 %29.95 inSouth (190°)15.0 mph
8:00 AM48.2 °F44.6 °F87 %29.92 inSouth (190°)16.1 mph
8:30 AM48.2 °F44.6 °F87 %29.89 inSouth (190°)17.3 mph
9:00 AM48.2 °F44.6 °F87 %29.89 inSouth (180°)17.3 mph
9:30 AM50.0 °F44.6 °F82 %29.89 inSouth (180°)12.7 mph
10:00 AM50.0 °F44.6 °F82 %29.89 inSouth (190°)16.1 mph
10:30 AM50.0 °F46.4 °F87 %29.86 inSouth (190°)17.3 mph31.1 mph
11:00 AM50.0 °F46.4 °F87 %29.86 inSouth (190°)16.1 mph
11:30 AM50.0 °F46.4 °F87 %29.86 inSSW (200°)18.4 mph
12:00 PM51.8 °F46.4 °F82 %29.83 inSouth (190°)19.6 mph
12:30 PM50.0 °F46.4 °F87 %29.80 inSouth (190°)19.6 mph
1:00 PM51.8 °F46.4 °F82 %29.77 inSouth (190°)17.3 mph
1:30 PM51.8 °F46.4 °F82 %29.77 inSouth (190°)18.4 mph
2:00 PM51.8 °F46.4 °F82 %29.74 inSouth (190°)19.6 mph32.2 mph
2:30 PM51.8 °F46.4 °F82 %29.71 inSSW (200°)19.6 mph
3:00 PM51.8 °F46.4 °F82 %29.71 inSouth (190°)18.4 mph32.2 mph
3:30 PM51.8 °F46.4 °F82 %29.68 inSouth (190°)17.3 mph
4:00 PM51.8 °F46.4 °F82 %29.68 inSouth (190°)19.6 mph
4:30 PM51.8 °F46.4 °F82 %29.65 inSouth (190°)18.4 mphRainLight Rain
5:00 PM51.8 °F46.4 °F82 %29.65 inSouth (190°)19.6 mph34.5 mphRainLight Rain
5:30 PM51.8 °F46.4 °F82 %29.65 inSSW (200°)20.7 mph33.4 mphRainLight Rain
6:00 PM51.8 °F46.4 °F82 %29.65 inSSW (200°)25.3 mph36.8 mph
6:30 PM50.0 °F46.4 °F87 %29.62 inSSW (200°)24.2 mphRainLight Rain
7:00 PM50.0 °F46.4 °F87 %29.62 inSouth (190°)20.7 mph34.5 mphRainLight Rain
7:30 PM50.0 °F46.4 °F87 %29.62 inSSW (200°)19.6 mphRainLight Rain
8:00 PM50.0 °F46.4 °F87 %29.62 inSSW (200°)23.0 mph34.5 mphRainLight Rain
8:30 PM50.0 °F46.4 °F87 %29.62 inSSW (200°)20.7 mphRainLight Rain
9:00 PM48.2 °F46.4 °F93 %29.62 inSSW (210°)18.4 mphRainRain
9:30 PM48.2 °F46.4 °F93 %29.62 inSW (220°)19.6 mphRainHeavy Rain
10:00 PM48.2 °F46.4 °F93 %29.62 inSSW (210°)18.4 mphRainLight Rain
10:30 PM48.2 °F46.4 °F93 %29.62 inSSW (200°)16.1 mphRainLight Rain
11:00 PM48.2 °F46.4 °F93 %29.62 inSSW (200°)17.3 mphRainRain
11:30 PM48.2 °F46.4 °F93 %29.62 inSSW (210°)17.3 mphRainLight Rain
Hourly data recorded from LFOH, located miles away from Le Havre, France







STORIES FROM OUR PARTNERS